Regional Weather Roundup
Issued by NWS Wakefield, VA

Home | Current Version | Previous Version | Text Only | Print | Product List | Glossary On
Versions: 1 2 3 4 5 6 7 8 9 10 11 12 13 14 15 16 17 18 19 20 21 22 23 24 25 26 27 28 29 30 31 32 33 34 35 36 37 38 39 40 41 42 43 44 45 46 47 48 49 50
000
ASUS41 KAKQ 170610
RWRAKQ

REGIONAL WEATHER ROUNDUP
NATIONAL WEATHER SERVICE WAKEFIELD VA
200 AM EDT WED SEP 17 2014

Note: "fair" indicates few or no clouds below 12,000 feet with no
significant weather and/or obstructions to visibility. * = Denotes
station may not report precipitation (e.g., rain,snow,etc.),
thunder or fog.

VAZ042-051-052>054-056-170700-
NORTHERN VIRGINIA

CITY           SKY/WX    TMP DP  RH WIND       PRES   REMARKS
WASH NATIONAL  PTCLDY    63  52  67 NW5       30.05S
DULLES         CLEAR     51  48  89 CALM      30.06R
FORT BELVOIR   CLEAR     55  53  94 CALM      30.06R
QUANTICO       CLEAR     58  54  86 NW8       30.05S
FREDERICKSBRG* PTCLDY    58  54  87 CALM      30.04S
STAFFORD*      CLEAR     53  53 100 CALM      30.08F
WARRENTON      CLEAR     49  49 100 CALM      30.05S
CULPEPER*      CLEAR     55  52  88 CALM      30.07S
MANASSAS*      PTCLDY    52  52 100 CALM      30.06S
LEESBURG*      CLEAR     54  54 100 CALM      30.06S
WINCHESTER     CLEAR     52  48  87 CALM      30.07S
FRONT ROYAL*   CLEAR     50  50 100 CALM      30.07S
LURAY*         MOCLDY    52  52 100 CALM      30.08R
$$

VAZ048-049-060>072-079>083-170700-
CENTRAL AND SOUTH CENTRAL VIRGINIA...AND NORTH CENTRAL NORTH CAROLINA

CITY           SKY/WX    TMP DP  RH WIND       PRES   REMARKS
RICHMOND       MOCLDY    65  56  72 N7        30.02S
CHESTERFIELD*  MOCLDY   N/A N/A N/A CALM      30.03S
PETERSBURG*    CLOUDY    66  60  80 NE3       30.02S
HANOVER        PTCLDY    62  56  80 CALM      30.04F
TAPPAHANNOCK*  PTCLDY    60  56  88 CALM      30.02F
CHARLOTTSVILLE MOCLDY    59  52  77 CALM      30.06R
ORANGE*        PTCLDY    59  50  72 CALM      30.07S
LOUISA*        PTCLDY    57  54  88 N5        30.04S
FARMVILLE*     MOCLDY    64  55  72 N7        30.01S
CREWE*         CLOUDY    65  61  85 N3        30.01F
FORT PICKETT*  CLOUDY    64  61  89 CALM      30.01F
LUNENBURG*     CLOUDY    67  62  85 N3        30.01S
SOUTH HILL*    CLOUDY    68  64  88 N5        30.05S
LAWRENCEVILLE* CLOUDY    66  63  90 CALM      30.00S
ROANOKE RAPIDS CLOUDY    64  63  94 NE5       29.98S
RALEIGH        CLOUDY    70  67  90 CALM      29.99R
$$

VAZ088>098-170700-
SOUTHEAST VIRGINIA

CITY           SKY/WX    TMP DP  RH WIND       PRES   REMARKS
NORFOLK        CLOUDY    71  57  61 NE12      29.98F
VIRGINIA BEACH CLOUDY    70  61  73 NE10      29.97F
NORFOLK NAVAL  CLOUDY    72  57  59 NE12      30.00F
WEST POINT*    MOCLDY    67  59  74 NE5       30.02F
NEWPORT NEWS   CLOUDY    67  62  84 N3        29.99F
LANGLEY AFB    CLOUDY    67  61  82 NE7       29.98F
FORT EUSTIS    CLOUDY    67  67 100 N1        29.98F
WILLIAMSBURG*  MOCLDY    68  63  83 CALM      30.01R
HR EXEC AP*    CLOUDY    66  57  72 NE5       30.00F
FRANKLIN*        N/A     66  63  88 NE5       29.99S
WAKEFIELD      CLOUDY    67  63  87 CALM      30.00S
$$

VAZ020-022-025-037-045-170700-
WEST CENTRAL AND SOUTHWEST VIRGINIA

CITY           SKY/WX    TMP DP  RH WIND       PRES   REMARKS
STAUNTON*      CLOUDY    58  49  72 N5        30.10S
HOT SPRINGS VA CLOUDY    51  37  58 E7        30.14S
LYNCHBURG      PTCLDY    62  54  74 NE9       30.05F
DANVILLE       PTCLDY    65  60  84 NE8       30.00S
SOUTH BOSTON*  NOT AVBL
MARTINSVILLE   CLEAR     63  61  95 CALM      30.05S
ROANOKE        CLOUDY    65  54  67 N7        30.07F
BLACKSBURG     CLOUDY    59  59 100 CALM      30.10S
DUBLIN*        MOCLDY    58  56  94 E3        30.09S
MARION*        MOCLDY    59  57  92 CALM      30.11S
HILLSVILLE*    MOCLDY    56  54  94 CALM      30.09S
RICHLANDS*     MOCLDY    59  56  91 NE5       30.08F
WISE*          CLOUDY    55  55 100 NE3       30.10S
ABINGDON*      CLOUDY    62  58  88 E7        30.06F
$$

MDZ021>025-VAZ099-100-170700-
SOUTHERN MARYLAND AND THE DELMARVA PENINSULA

CITY           SKY/WX    TMP DP  RH WIND       PRES   REMARKS
PATUXENT RIVER CLOUDY    66  54  65 NE8       30.03R
BAY BRIDGE APT   N/A     63  52  67 NE3       30.04R
LEONARDTOWN    MOCLDY    57  54  88 CALM      30.05R
DOVER          CLEAR     56  54  93 N8        30.01R
GEORGETOWN     CLEAR     59  54  83 CALM      30.02S
EASTON         CLEAR     59  56  92 CALM      30.07R
CAMBRIDGE      CLEAR     63  54  72 N5        30.02
SALISBURY      PTCLDY    62  55  77 CALM      30.02R
OCEAN CITY     PTCLDY    60  56  86 NW3       30.01S
WALLOPS ISLAND PTCLDY    62  57  83 NW5       30.02R
ACCOMACK*      CLOUDY    63  55  77 N6        30.01F
$$

NCZ012>017-030>032-170700-
EASTERN NORTH CAROLINA

CITY           SKY/WX    TMP DP  RH WIND       PRES   REMARKS
ELIZABETH CITY CLOUDY    70  64  81 NE5       29.97F
AHOSKIE*       CLOUDY    66  64  90 CALM      29.99R
EDENTON*       NOT AVBL
CURRITUCK*     CLOUDY    72  61  69 NE5       29.98F
KILL DEVIL HLS CLOUDY    72  63  74 CALM      29.96F
MANTEO         CLOUDY    71  64  79 NE6       29.97F
CAPE HATTERAS  MOCLDY    68  66  93 NE6       29.94F
TARBORO*       CLOUDY    69  65  84 CALM      29.98R
GOLDSBORO      LGT RAIN  72  70  94 W13       29.93S
WASHINGTON     CLOUDY    69  66  89 NE5       29.97R
GREENVILLE     CLOUDY    70  68  94 E5        29.98S
NEW BERN       MOCLDY    72  69  90 NE5       29.96S
WILMINGTON     LGT RAIN  69  63  81 N7G24     29.97R
$$

VAZ048-170700-
ELSEWHERE

CITY           SKY/WX    TMP DP  RH WIND       PRES   REMARKS
HARRISBURG PA  PTCLDY    53  50  89 CALM      30.05R
BALTIMORE      CLEAR     54  51  90 CALM      30.04S
ANNAPOLIS      CLEAR     63  58  83 N5        30.03S
ANDREWS AFB    CLEAR     54  48  82 N6        30.04S
WILMINGTON DE  CLEAR     54  51  90 NW7       30.05R
PHILADELPHIA   CLEAR     59  51  75 CALM      30.04S
WILDWOOD NJ*   CLEAR     57  54  88 N3        30.03S
ATLANTIC CITY  CLEAR     55  53  93 NW3       30.03R
HENDERSON NC   CLOUDY    66  62  86 NE6       30.00R
GREENSBORO     PTCLDY    66  64  93 N5        30.00R
ROCKY MOUNT    CLOUDY    71  67  87 CALM      29.96S
FAYETTEVILLE   LGT RAIN  67  65  93 W5        29.98R FOG
CHARLOTTE      CLOUDY    66  63  90 SE5       29.99F
$$

VAZ100-170700-
MARINE

STATION/POSITION TIME  TEMP    WIND        PRES    WAVE   SWELL
                       AIR SEA DIR/SP/G            HT/PER HT/PER
                 (UTC) (F)     (DEG/KT/KT) (MB)    (FT/S) (FT/S)
44066 TX TWR #4  0600   67 74   10/  8/ 12 1015.5F   2/16   2/16
CAPE MAY NJ      0600   62 76   30/  4/  6 1016.0F
LEWES DE         0600   69 73   50/ 11/ 12 1016.1S
15NM E FENWICK I 0600   69 72              1015.7R   3/ 4
OCEAN-CITY-INLET 0600   66 72  340/  5/  6 1015.6S
WACHAPREAGUE VA  0600   66 75  350/  3/  4 1016.2S
THOMAS POINT MD  0600   67 74   50/ 12/ 13 1018.0R
GOOSES REEF MD   0600   69      70/ 12/ 14 1017.1S
COVE POINT MD    0600   67      60/ 10/ 12 1016.7R
SOLOMONS ISLAND  0600      76                N/A
BISHOPS HEAD MD  0600   67 73   20/  6/ 10 1016.0F
PINEY POINT MD   0600           60/  5/  5   N/A
POTOMAC MD       0600   70      40/ 10/ 14 1015.9F
CAMBRIDGE MD     0600   65 75   40/  9/ 11 1016.4F
LEWISETTA VA     0600   69 74   40/  7/ 11 1016.1F
RAPPAHANNOCK LGT 0600           40/ 12/ 14 1016.4F
STINGRAY PT      0600   72      60/ 12/ 16   N/A
YORK RVR RNG VA  0600   71     100/ 12/ 14 1014.8F
YORKTOWN VA      0600   72 77   80/  9/ 11 1015.2F
JAMESTOWN VA     0600   69      80/  4/  6   N/A
DOMINION TERM VA 0600   70      30/  4/  8 1015.3F
KIPTOPEKE VA     0600      79   80/  6/  9   N/A
CHES BAY BRIDGE  0600   71 76   30/ 16/ 19 1014.6F
CAPE HENRY VA    0600   71      30/ 14/ 16 1013.9F
CHESAPEAKE LGHT  0500   72      80/  9/ 10 1016.5R
WILLOUBY STN VA  0600   72      40/ 11/ 13 1014.0F
S CRANEY ISL VA  0600           20/ 10/ 11 1015.0F
CAPE HENRY BUOY  0600      76                N/A     3/12   2/12
1ST LANDING BUOY 0600   72      40/ 16/ 17 1015.0F
CAPE CHARLES BUO 0600      75                N/A     2/13   2/13
OFFSHORE WE BUOY 0600      75                N/A     3/13   3/13
64NM E OF VA BCH 0600   74 78   70/ 10/ 12 1014.4S   2/16   2/16
DUCK PIER NC     0600   74 77   50/  9/ 10 1014.2F
44100 DUCK FRF   0600      75                N/A     3/13   2/13
44056 DUCK FRF   0600                        N/A     2/17   2/17
OREGON INLET NC  0600   74 76   50/  6/  9 1014.5F
HATTERAS NC      0600   73 80   60/  4/  5 1014.3F
DIAMOND SHLS NC  0600   76     360/  8/ 12 1013.8F   3/12   2/12
CAPE LOOKOUT NC  0500   78     200/  6/  7 1013.6F
$$


USA.gov is the U.S. government's official web portal to all federal, state and local government web resources and services.